Year,Month,Day,Hour,Minute,Value (Times are PST for temperature in C)
2011,11,21,01,48,4.60
2011,11,21,01,49,4.60
2011,11,21,01,50,4.60
2011,11,21,01,51,4.60
2011,11,21,01,52,4.60
2011,11,21,01,53,4.60
2011,11,21,01,54,4.60
2011,11,21,01,55,4.60
2011,11,21,01,56,4.60
2011,11,21,01,57,4.60
2011,11,21,01,58,4.60
2011,11,21,01,59,4.60
2011,11,21,02,00,4.60
2011,11,21,02,01,4.60
2011,11,21,02,02,4.60
2011,11,21,02,03,4.50
2011,11,21,02,04,4.50
2011,11,21,02,05,4.50
2011,11,21,02,06,4.50
2011,11,21,02,07,4.50
2011,11,21,02,08,4.50
2011,11,21,02,09,4.50
2011,11,21,02,10,4.50
2011,11,21,02,11,4.50
2011,11,21,02,12,4.50
2011,11,21,02,13,4.50
2011,11,21,02,14,4.50
2011,11,21,02,15,4.50
2011,11,21,02,16,4.50
2011,11,21,02,17,4.50
2011,11,21,02,18,4.70
2011,11,21,02,19,4.70
2011,11,21,02,20,4.70
2011,11,21,02,21,4.70
2011,11,21,02,22,4.70
2011,11,21,02,23,4.70
2011,11,21,02,24,4.70
2011,11,21,02,25,4.70
2011,11,21,02,26,4.70
2011,11,21,02,27,4.70
2011,11,21,02,28,4.70
2011,11,21,02,29,4.70
2011,11,21,02,30,4.70
2011,11,21,02,31,4.70
2011,11,21,02,32,4.70
2011,11,21,02,33,4.80
2011,11,21,02,34,4.80
2011,11,21,02,35,4.80
2011,11,21,02,36,4.80
2011,11,21,02,37,4.80
2011,11,21,02,38,4.80
2011,11,21,02,39,4.80
2011,11,21,02,40,4.80
2011,11,21,02,41,4.80
2011,11,21,02,42,4.80
2011,11,21,02,43,4.80
2011,11,21,02,44,4.80
2011,11,21,02,45,4.80
2011,11,21,02,46,4.80
2011,11,21,02,47,4.80
2011,11,21,02,48,4.80
2011,11,21,02,49,4.80
2011,11,21,02,50,4.80
2011,11,21,02,51,4.80
2011,11,21,02,52,4.80
2011,11,21,02,53,4.80
2011,11,21,02,54,4.80
2011,11,21,02,55,4.80
2011,11,21,02,56,4.80
2011,11,21,02,57,4.80
2011,11,21,02,58,4.80
2011,11,21,02,59,4.80
2011,11,21,03,00,4.80
2011,11,21,03,01,4.80
2011,11,21,03,02,4.80
2011,11,21,03,03,4.90
2011,11,21,03,04,4.90
2011,11,21,03,05,4.90
2011,11,21,03,06,4.90
2011,11,21,03,07,4.90
2011,11,21,03,08,4.90
2011,11,21,03,09,4.90
2011,11,21,03,10,4.90
2011,11,21,03,11,4.90
2011,11,21,03,12,4.90
2011,11,21,03,13,4.90
2011,11,21,03,14,4.90
2011,11,21,03,15,4.90
2011,11,21,03,16,4.90
2011,11,21,03,17,4.90
2011,11,21,03,18,4.90
2011,11,21,03,19,4.90
2011,11,21,03,20,4.90
2011,11,21,03,21,4.90
2011,11,21,03,22,4.90
2011,11,21,03,23,4.90
2011,11,21,03,24,4.90
2011,11,21,03,25,4.90
2011,11,21,03,26,4.90
2011,11,21,03,27,4.90
2011,11,21,03,28,4.90
2011,11,21,03,29,4.90
2011,11,21,03,30,4.90
2011,11,21,03,31,4.90
2011,11,21,03,32,4.90
2011,11,21,03,33,5.40
2011,11,21,03,34,5.40
2011,11,21,03,35,5.40
2011,11,21,03,36,5.40
2011,11,21,03,37,5.40
2011,11,21,03,38,5.40
2011,11,21,03,39,5.40
2011,11,21,03,40,5.40
2011,11,21,03,41,5.40
2011,11,21,03,42,5.40
2011,11,21,03,43,5.40
2011,11,21,03,44,5.40
2011,11,21,03,45,5.40
2011,11,21,03,46,5.40
2011,11,21,03,47,5.40
2011,11,21,03,48,5.40
2011,11,21,03,49,5.60
2011,11,21,03,50,5.60
2011,11,21,03,51,5.60
2011,11,21,03,52,5.60
2011,11,21,03,53,5.60
2011,11,21,03,54,5.60
2011,11,21,03,55,5.60
2011,11,21,03,56,5.60
2011,11,21,03,57,5.60
2011,11,21,03,58,5.60
2011,11,21,03,59,5.60
2011,11,21,04,00,5.60
2011,11,21,04,01,5.60
2011,11,21,04,02,5.60
2011,11,21,04,03,5.60
2011,11,21,04,04,5.30
2011,11,21,04,05,5.30
2011,11,21,04,06,5.30
2011,11,21,04,07,5.30
2011,11,21,04,08,5.30
2011,11,21,04,09,5.30
2011,11,21,04,10,5.30
2011,11,21,04,11,5.30
2011,11,21,04,12,5.30
2011,11,21,04,13,5.30
2011,11,21,04,14,5.30
2011,11,21,04,15,5.30
2011,11,21,04,16,5.30
2011,11,21,04,17,5.30
2011,11,21,04,18,5.40
2011,11,21,04,19,5.40
2011,11,21,04,20,5.40
2011,11,21,04,21,5.40
2011,11,21,04,22,5.40
2011,11,21,04,23,5.40
2011,11,21,04,24,5.40
2011,11,21,04,25,5.40
2011,11,21,04,26,5.40
2011,11,21,04,27,5.40
2011,11,21,04,28,5.40
2011,11,21,04,29,5.40
2011,11,21,04,30,5.40
2011,11,21,04,31,5.40
2011,11,21,04,32,5.40
2011,11,21,04,33,5.80
2011,11,21,04,34,5.80
2011,11,21,04,35,5.80
2011,11,21,04,36,5.80
2011,11,21,04,37,5.80
2011,11,21,04,38,5.80
2011,11,21,04,39,5.80
2011,11,21,04,40,5.80
2011,11,21,04,41,5.80
2011,11,21,04,42,5.80
2011,11,21,04,43,5.80
2011,11,21,04,44,5.80
2011,11,21,04,45,5.80
2011,11,21,04,46,5.80
2011,11,21,04,47,5.80
2011,11,21,04,48,6.20
2011,11,21,04,49,6.20
2011,11,21,04,50,6.20
2011,11,21,04,51,6.20
2011,11,21,04,52,6.20
2011,11,21,04,53,6.20
2011,11,21,04,54,6.20
2011,11,21,04,55,6.20
2011,11,21,04,56,6.20
2011,11,21,04,57,6.20
2011,11,21,04,58,6.20
2011,11,21,04,59,6.20
2011,11,21,05,00,6.20
2011,11,21,05,01,6.20
2011,11,21,05,02,6.20
2011,11,21,05,03,6.40
2011,11,21,05,04,6.40
2011,11,21,05,05,6.40
2011,11,21,05,06,6.40
2011,11,21,05,07,6.40
2011,11,21,05,08,6.40
2011,11,21,05,09,6.40
2011,11,21,05,10,6.40
2011,11,21,05,11,6.40
2011,11,21,05,12,6.40
2011,11,21,05,13,6.40
2011,11,21,05,14,6.40
2011,11,21,05,15,6.40
2011,11,21,05,16,6.40
2011,11,21,05,17,6.40
2011,11,21,05,18,6.60
2011,11,21,05,19,6.60
2011,11,21,05,20,6.60
2011,11,21,05,21,6.60
2011,11,21,05,22,6.60
2011,11,21,05,23,6.60
2011,11,21,05,24,6.60
2011,11,21,05,25,6.60
2011,11,21,05,26,6.60
2011,11,21,05,27,6.60
2011,11,21,05,28,6.60
2011,11,21,05,29,6.60
2011,11,21,05,30,6.60
2011,11,21,05,31,6.60
2011,11,21,05,32,6.60
2011,11,21,05,33,6.30
2011,11,21,05,34,6.30
2011,11,21,05,35,6.30
2011,11,21,05,36,6.30
2011,11,21,05,37,6.30
2011,11,21,05,38,6.30
2011,11,21,05,39,6.30
2011,11,21,05,40,6.30
2011,11,21,05,41,6.30
2011,11,21,05,42,6.30
2011,11,21,05,43,6.30
2011,11,21,05,44,6.30
2011,11,21,05,45,6.30
2011,11,21,05,46,6.30
2011,11,21,05,47,6.30
2011,11,21,05,48,6.20
2011,11,21,05,49,6.20
2011,11,21,05,50,6.20
2011,11,21,05,51,6.20
2011,11,21,05,52,6.20
2011,11,21,05,53,6.20
2011,11,21,05,54,6.20
2011,11,21,05,55,6.20
2011,11,21,05,56,6.20
2011,11,21,05,57,6.20
2011,11,21,05,58,6.20
2011,11,21,05,59,6.20
2011,11,21,06,00,6.20
2011,11,21,06,01,6.20
2011,11,21,06,02,6.20
2011,11,21,06,03,6.50
2011,11,21,06,04,6.50
2011,11,21,06,05,6.50
2011,11,21,06,06,6.50
2011,11,21,06,07,6.50
2011,11,21,06,08,6.50
2011,11,21,06,09,6.50
2011,11,21,06,10,6.50
2011,11,21,06,11,6.50
2011,11,21,06,12,6.50
2011,11,21,06,13,6.50
2011,11,21,06,14,6.50
2011,11,21,06,15,6.50
2011,11,21,06,16,6.50
2011,11,21,06,17,6.50
2011,11,21,06,18,6.30
2011,11,21,06,19,6.30
2011,11,21,06,20,6.30
2011,11,21,06,21,6.30
2011,11,21,06,22,6.30
2011,11,21,06,23,6.30
2011,11,21,06,24,6.30
2011,11,21,06,25,6.30
2011,11,21,06,26,6.30
2011,11,21,06,27,6.30
2011,11,21,06,28,6.30
2011,11,21,06,29,6.30
2011,11,21,06,30,6.30
2011,11,21,06,31,6.30
2011,11,21,06,32,6.30
2011,11,21,06,33,6.20
2011,11,21,06,34,6.20
2011,11,21,06,35,6.20
2011,11,21,06,36,6.20
2011,11,21,06,37,6.20
2011,11,21,06,38,6.20
2011,11,21,06,39,6.20
2011,11,21,06,40,6.20
2011,11,21,06,41,6.20
2011,11,21,06,42,6.20
2011,11,21,06,43,6.20
2011,11,21,06,44,6.20
2011,11,21,06,45,6.20
2011,11,21,06,46,6.20
2011,11,21,06,47,6.20
2011,11,21,06,48,6.30
2011,11,21,06,49,6.30
2011,11,21,06,50,6.30
2011,11,21,06,51,6.30
2011,11,21,06,52,6.30
2011,11,21,06,53,6.30
2011,11,21,06,54,6.30
2011,11,21,06,55,6.30
2011,11,21,06,56,6.30
2011,11,21,06,57,6.30
2011,11,21,06,58,6.30
2011,11,21,06,59,6.30
2011,11,21,07,00,6.30
2011,11,21,07,01,6.30
2011,11,21,07,02,6.30
2011,11,21,07,03,6.20
2011,11,21,07,04,6.20
2011,11,21,07,05,6.20
2011,11,21,07,06,6.20
2011,11,21,07,07,6.20
2011,11,21,07,08,6.20
2011,11,21,07,09,6.20
2011,11,21,07,10,6.20
2011,11,21,07,11,6.20
2011,11,21,07,12,6.20
2011,11,21,07,13,6.20
2011,11,21,07,14,6.20
2011,11,21,07,15,6.20
2011,11,21,07,16,6.20
2011,11,21,07,17,6.20
2011,11,21,07,18,6.20
2011,11,21,07,19,6.20
2011,11,21,07,20,6.20
2011,11,21,07,21,6.20
2011,11,21,07,22,6.20
2011,11,21,07,23,6.20
2011,11,21,07,24,6.20
2011,11,21,07,25,6.20
2011,11,21,07,26,6.20
2011,11,21,07,27,6.20
2011,11,21,07,28,6.20
2011,11,21,07,29,6.20
2011,11,21,07,30,6.20
2011,11,21,07,31,6.20
2011,11,21,07,32,6.20
2011,11,21,07,33,6.10
2011,11,21,07,34,6.10
2011,11,21,07,35,6.10
2011,11,21,07,36,6.10
2011,11,21,07,37,6.10
2011,11,21,07,38,6.10
2011,11,21,07,39,6.10
2011,11,21,07,40,6.10
2011,11,21,07,41,6.10
2011,11,21,07,42,6.10
2011,11,21,07,43,6.10
2011,11,21,07,44,6.10
2011,11,21,07,45,6.10
2011,11,21,07,46,6.10
2011,11,21,07,47,6.10
2011,11,21,07,48,6.30
2011,11,21,07,49,6.30
2011,11,21,07,50,6.30
2011,11,21,07,51,6.30
2011,11,21,07,52,6.30
2011,11,21,07,53,6.30
2011,11,21,07,54,6.30
2011,11,21,07,55,6.30
2011,11,21,07,56,6.30
2011,11,21,07,57,6.30
2011,11,21,07,58,6.30
2011,11,21,07,59,6.30
2011,11,21,08,00,6.30
2011,11,21,08,01,6.30
2011,11,21,08,02,6.30
2011,11,21,08,03,6.30
2011,11,21,08,04,6.80
2011,11,21,08,05,6.80
2011,11,21,08,06,6.80
2011,11,21,08,07,6.80
2011,11,21,08,08,6.80
2011,11,21,08,09,6.80
2011,11,21,08,10,6.80
2011,11,21,08,11,6.80
2011,11,21,08,12,6.80
2011,11,21,08,13,6.80
2011,11,21,08,14,6.80
2011,11,21,08,15,6.80
2011,11,21,08,16,6.80
2011,11,21,08,17,6.80
2011,11,21,08,18,6.90
2011,11,21,08,19,6.90
2011,11,21,08,20,6.90
2011,11,21,08,21,6.90
2011,11,21,08,22,6.90
2011,11,21,08,23,6.90
2011,11,21,08,24,6.90
2011,11,21,08,25,6.90
2011,11,21,08,26,6.90
2011,11,21,08,27,6.90
2011,11,21,08,28,6.90
2011,11,21,08,29,6.90
2011,11,21,08,30,6.90
2011,11,21,08,31,6.90
2011,11,21,08,32,6.90
2011,11,21,08,33,7.10
2011,11,21,08,34,7.10
2011,11,21,08,35,7.10
2011,11,21,08,36,7.10
2011,11,21,08,37,7.10
2011,11,21,08,38,7.10
2011,11,21,08,39,7.10
2011,11,21,08,40,7.10
2011,11,21,08,41,7.10
2011,11,21,08,42,7.10
2011,11,21,08,43,7.10
2011,11,21,08,44,7.10
2011,11,21,08,45,7.10
2011,11,21,08,46,7.10
2011,11,21,08,47,7.10
2011,11,21,08,48,7.20
2011,11,21,08,49,7.20
2011,11,21,08,50,7.20
2011,11,21,08,51,7.20
2011,11,21,08,52,7.20
2011,11,21,08,53,7.20
2011,11,21,08,54,7.20
2011,11,21,08,55,7.20
2011,11,21,08,56,7.20
2011,11,21,08,57,7.20
2011,11,21,08,58,7.20
2011,11,21,08,59,7.20
2011,11,21,09,00,7.20
2011,11,21,09,01,7.20
2011,11,21,09,02,7.20
2011,11,21,09,03,7.60
2011,11,21,09,04,7.60
2011,11,21,09,05,7.60
2011,11,21,09,06,7.60
2011,11,21,09,07,7.60
2011,11,21,09,08,7.60
2011,11,21,09,09,7.60
2011,11,21,09,10,7.60
2011,11,21,09,11,7.60
2011,11,21,09,12,7.60
2011,11,21,09,13,7.60
2011,11,21,09,14,7.60
2011,11,21,09,15,7.60
2011,11,21,09,16,7.60
2011,11,21,09,17,7.60
2011,11,21,09,18,7.80
2011,11,21,09,19,7.80
2011,11,21,09,20,7.80
2011,11,21,09,21,7.80
2011,11,21,09,22,7.80
2011,11,21,09,23,7.80
2011,11,21,09,24,7.80
2011,11,21,09,25,7.80
2011,11,21,09,26,7.80
2011,11,21,09,27,7.80
2011,11,21,09,28,7.80
2011,11,21,09,29,7.80
2011,11,21,09,30,7.80
2011,11,21,09,31,7.80
2011,11,21,09,32,7.80
2011,11,21,09,33,7.60
2011,11,21,09,34,7.60
2011,11,21,09,35,7.60
2011,11,21,09,36,7.60
2011,11,21,09,37,7.60
2011,11,21,09,38,7.60
2011,11,21,09,39,7.60
2011,11,21,09,40,7.60
2011,11,21,09,41,7.60
2011,11,21,09,42,7.60
2011,11,21,09,43,7.60
2011,11,21,09,44,7.60
2011,11,21,09,45,7.60
2011,11,21,09,46,7.60
2011,11,21,09,47,7.60
2011,11,21,09,48,7.60
2011,11,21,09,49,7.60
2011,11,21,09,50,7.60
2011,11,21,09,51,7.60
2011,11,21,09,52,7.60
2011,11,21,09,53,7.60
2011,11,21,09,54,7.60
2011,11,21,09,55,7.60
2011,11,21,09,56,7.60
2011,11,21,09,57,7.60
2011,11,21,09,58,7.60
2011,11,21,09,59,7.60
2011,11,21,10,00,7.60
2011,11,21,10,01,7.60
2011,11,21,10,02,7.60
2011,11,21,10,03,7.60
2011,11,21,10,04,7.60
2011,11,21,10,05,7.60
2011,11,21,10,06,7.60
2011,11,21,10,07,7.60
2011,11,21,10,08,7.60
2011,11,21,10,09,7.60
2011,11,21,10,10,7.60
2011,11,21,10,11,7.60
2011,11,21,10,12,7.60
2011,11,21,10,13,7.60
2011,11,21,10,14,7.60
2011,11,21,10,15,7.60
2011,11,21,10,16,7.60
2011,11,21,10,17,7.60
2011,11,21,10,18,7.80
2011,11,21,10,19,7.80
2011,11,21,10,20,7.80
2011,11,21,10,21,7.80
2011,11,21,10,22,7.80
2011,11,21,10,23,7.80
2011,11,21,10,24,7.80
2011,11,21,10,25,7.80
2011,11,21,10,26,7.80
2011,11,21,10,27,7.80
2011,11,21,10,28,7.80
2011,11,21,10,29,7.80
2011,11,21,10,30,7.80
2011,11,21,10,31,7.80
2011,11,21,10,32,7.80
2011,11,21,10,33,7.90
2011,11,21,10,34,7.90
2011,11,21,10,35,7.90
2011,11,21,10,36,7.90
2011,11,21,10,37,7.90
2011,11,21,10,38,7.90
2011,11,21,10,39,7.90
2011,11,21,10,40,7.90
2011,11,21,10,41,7.90
2011,11,21,10,42,7.90
2011,11,21,10,43,7.90
2011,11,21,10,44,7.90
2011,11,21,10,45,7.90
2011,11,21,10,46,7.90
2011,11,21,10,47,7.90
2011,11,21,10,48,8.10
2011,11,21,10,49,8.10
2011,11,21,10,50,8.10
2011,11,21,10,51,8.10
2011,11,21,10,52,8.10
2011,11,21,10,53,8.10
2011,11,21,10,54,8.10
2011,11,21,10,55,8.10
2011,11,21,10,56,8.10
2011,11,21,10,57,8.10
2011,11,21,10,58,8.10
2011,11,21,10,59,8.10
2011,11,21,11,00,8.10
2011,11,21,11,01,8.10
2011,11,21,11,02,8.10
2011,11,21,11,03,8.10
2011,11,21,11,04,8.10
2011,11,21,11,05,8.10
2011,11,21,11,06,8.10
2011,11,21,11,07,8.10
2011,11,21,11,08,8.10
2011,11,21,11,09,8.10
2011,11,21,11,10,8.10
2011,11,21,11,11,8.10
2011,11,21,11,12,8.10
2011,11,21,11,13,8.10
2011,11,21,11,14,8.10
2011,11,21,11,15,8.10
2011,11,21,11,16,8.10
2011,11,21,11,17,8.10
2011,11,21,11,18,8.10
2011,11,21,11,19,8.10
2011,11,21,11,20,8.10
2011,11,21,11,21,8.10
2011,11,21,11,22,8.10
2011,11,21,11,23,8.10
2011,11,21,11,24,8.10
2011,11,21,11,25,8.10
2011,11,21,11,26,8.10
2011,11,21,11,27,8.10
2011,11,21,11,28,8.10
2011,11,21,11,29,8.10
2011,11,21,11,30,8.10
2011,11,21,11,31,8.10
2011,11,21,11,32,8.10
2011,11,21,11,33,8.10
2011,11,21,11,34,8.10
2011,11,21,11,35,8.10
2011,11,21,11,36,8.10
2011,11,21,11,37,8.10
2011,11,21,11,38,8.10
2011,11,21,11,39,8.10
2011,11,21,11,40,8.10
2011,11,21,11,41,8.10
2011,11,21,11,42,8.10
2011,11,21,11,43,8.10
2011,11,21,11,44,8.10
2011,11,21,11,45,8.10
2011,11,21,11,46,8.10
2011,11,21,11,47,8.10
2011,11,21,11,48,8.10
2011,11,21,11,49,8.10
2011,11,21,11,50,8.10
2011,11,21,11,51,8.10
2011,11,21,11,52,8.10
2011,11,21,11,53,8.10
2011,11,21,11,54,8.10
2011,11,21,11,55,8.10
2011,11,21,11,56,8.10
2011,11,21,11,57,8.10
2011,11,21,11,58,8.10
2011,11,21,11,59,8.10
2011,11,21,14,41,7.70
2011,11,21,14,42,7.70
2011,11,21,14,43,7.70
2011,11,21,14,44,7.70
2011,11,21,14,45,7.70
2011,11,21,14,46,7.70
2011,11,21,14,47,7.70
2011,11,21,14,48,7.70
2011,11,21,14,49,7.70
2011,11,21,14,50,7.70
2011,11,21,14,51,7.70
2011,11,21,14,52,7.70
2011,11,21,14,53,7.70
2011,11,21,14,54,7.70
2011,11,21,14,55,7.70
2011,11,21,14,56,7.60
2011,11,21,14,57,7.60
2011,11,21,14,58,7.60
2011,11,21,14,59,7.60
2011,11,21,15,00,7.60
2011,11,21,15,01,7.60
2011,11,21,15,02,7.60
2011,11,21,15,03,7.60
2011,11,21,15,04,7.60
2011,11,21,15,05,7.60
2011,11,21,15,06,7.60
2011,11,21,15,07,7.60
2011,11,21,15,08,7.60
2011,11,21,15,09,7.60
2011,11,21,15,10,7.60
2011,11,21,15,11,7.40
2011,11,21,15,12,7.40
2011,11,21,15,13,7.40
2011,11,21,15,14,7.40
2011,11,21,15,15,7.40
2011,11,21,15,16,7.40
2011,11,21,15,17,7.40
2011,11,21,15,18,7.40
2011,11,21,15,19,7.40
2011,11,21,15,20,7.40
2011,11,21,15,21,7.40
2011,11,21,15,22,7.40
2011,11,21,15,23,7.40
2011,11,21,15,24,7.40
2011,11,21,15,25,7.40
2011,11,21,15,26,7.30
2011,11,21,15,27,7.30
2011,11,21,15,28,7.30
2011,11,21,15,29,7.30
2011,11,21,15,30,7.30
2011,11,21,15,31,7.30
2011,11,21,15,32,7.30
2011,11,21,15,33,7.30
2011,11,21,15,34,7.30
2011,11,21,15,35,7.30
2011,11,21,15,36,7.30
2011,11,21,15,37,7.30
2011,11,21,15,38,7.30
2011,11,21,15,39,7.30
2011,11,21,15,40,7.30
2011,11,21,15,41,7.20
2011,11,21,15,42,7.20
2011,11,21,15,43,7.20
2011,11,21,15,44,7.20
2011,11,21,15,45,7.20
2011,11,21,15,46,7.20
2011,11,21,15,47,7.20
2011,11,21,15,48,7.20
2011,11,21,15,49,7.20
2011,11,21,15,50,7.20
2011,11,21,15,51,7.20
2011,11,21,15,52,7.20
2011,11,21,15,53,7.20
2011,11,21,15,54,7.20
2011,11,21,15,55,7.20
2011,11,21,15,56,7.20
2011,11,21,15,57,7.20
2011,11,21,15,58,7.20
2011,11,21,15,59,7.20
2011,11,21,16,00,7.20
2011,11,21,16,01,7.20
2011,11,21,16,02,7.20
2011,11,21,16,03,7.20
2011,11,21,16,04,7.20
2011,11,21,16,05,7.20
2011,11,21,16,06,7.20
2011,11,21,16,07,7.20
2011,11,21,16,08,7.20
2011,11,21,16,09,7.20
2011,11,21,16,10,7.20
2011,11,21,16,11,7.20
2011,11,21,16,12,7.20
2011,11,21,16,13,7.20
2011,11,21,16,14,7.20
2011,11,21,16,15,7.20
2011,11,21,16,16,7.20
2011,11,21,16,17,7.20
2011,11,21,16,18,7.20
2011,11,21,16,19,7.20
2011,11,21,16,20,7.20
2011,11,21,16,21,7.20
2011,11,21,16,22,7.20
2011,11,21,16,23,7.20
2011,11,21,16,24,7.20
2011,11,21,16,25,7.20
2011,11,21,16,26,7.20
2011,11,21,16,27,7.20
2011,11,21,16,28,7.20
2011,11,21,16,29,7.20
2011,11,21,16,30,7.20
2011,11,21,16,31,7.20
2011,11,21,16,32,7.20
2011,11,21,16,33,7.20
2011,11,21,16,34,7.20
2011,11,21,16,35,7.20
2011,11,21,16,36,7.20
2011,11,21,16,37,7.20
2011,11,21,16,38,7.20
2011,11,21,16,39,7.20
2011,11,21,16,40,7.20
2011,11,21,16,41,7.20
2011,11,21,16,42,7.20
2011,11,21,16,43,7.20
2011,11,21,16,44,7.20
2011,11,21,16,45,7.20
2011,11,21,16,46,7.20
2011,11,21,16,47,7.20
2011,11,21,16,48,7.20
2011,11,21,16,49,7.20
2011,11,21,16,50,7.20
2011,11,21,16,51,7.20
2011,11,21,16,52,7.20
2011,11,21,16,53,7.20
2011,11,21,16,54,7.20
2011,11,21,16,55,7.20
2011,11,21,16,56,7.20
2011,11,21,16,57,7.20
2011,11,21,16,58,7.20
2011,11,21,16,59,7.20
2011,11,21,17,00,7.20
2011,11,21,17,01,7.20
2011,11,21,17,02,7.20
2011,11,21,17,03,7.20
2011,11,21,17,04,7.20
2011,11,21,17,05,7.20
2011,11,21,17,06,7.20
2011,11,21,17,07,7.20
2011,11,21,17,08,7.20
2011,11,21,17,09,7.20
2011,11,21,17,10,7.20
2011,11,21,17,11,7.10
2011,11,21,17,13,7.10
2011,11,21,17,14,7.10
2011,11,21,17,15,7.10
2011,11,21,17,16,7.10
2011,11,21,17,17,7.10
2011,11,21,17,18,7.10
2011,11,21,17,19,7.10
2011,11,21,17,20,7.10
2011,11,21,17,21,7.10
2011,11,21,17,22,7.10
2011,11,21,17,23,7.10
2011,11,21,17,24,7.10
2011,11,21,17,25,7.10
2011,11,21,17,26,7.10
2011,11,21,17,27,7.10
2011,11,21,17,28,7.10
2011,11,21,17,29,7.10
2011,11,21,17,30,7.10
2011,11,21,17,31,7.10
2011,11,21,17,32,7.10
2011,11,21,17,33,7.10
2011,11,21,17,34,7.10
2011,11,21,17,35,7.10
2011,11,21,17,36,7.10
2011,11,21,17,37,7.10
2011,11,21,17,38,7.10
2011,11,21,17,39,7.10
2011,11,21,17,40,7.10
2011,11,21,17,41,7.20
2011,11,21,17,42,7.20
2011,11,21,17,43,7.20
2011,11,21,17,44,7.20
2011,11,21,17,45,7.20
2011,11,21,17,46,7.20
2011,11,21,17,47,7.20
2011,11,21,17,48,7.20
2011,11,21,17,49,7.20
2011,11,21,17,50,7.20
2011,11,21,17,51,7.20
2011,11,21,17,52,7.20
2011,11,21,17,53,7.20
2011,11,21,17,54,7.20
2011,11,21,17,55,7.20
2011,11,21,17,56,7.20
2011,11,21,17,57,7.20
2011,11,21,17,58,7.20
2011,11,21,17,59,7.20
2011,11,21,18,00,7.20
2011,11,21,18,01,7.20
2011,11,21,18,02,7.20
2011,11,21,18,03,7.20
2011,11,21,18,04,7.20
2011,11,21,18,05,7.20
2011,11,21,18,06,7.20
2011,11,21,18,07,7.20
2011,11,21,18,08,7.20
2011,11,21,18,09,7.20
2011,11,21,18,10,7.20
2011,11,21,18,11,7.30
2011,11,21,18,12,7.30
2011,11,21,18,13,7.30
2011,11,21,18,14,7.30
2011,11,21,18,15,7.30
2011,11,21,18,16,7.30
2011,11,21,18,17,7.30
2011,11,21,18,18,7.30
2011,11,21,18,19,7.30
2011,11,21,18,20,7.30
2011,11,21,18,21,7.30
2011,11,21,18,22,7.30
2011,11,21,18,23,7.30
2011,11,21,18,24,7.30
2011,11,21,18,25,7.30
2011,11,21,18,26,7.60
2011,11,21,18,27,7.60
2011,11,21,18,28,7.60
2011,11,21,18,29,7.60
2011,11,21,18,30,7.60
2011,11,21,18,31,7.60
2011,11,21,18,32,7.60
2011,11,21,18,33,7.60
2011,11,21,18,34,7.60
2011,11,21,18,35,7.60
2011,11,21,18,36,7.60
2011,11,21,18,37,7.60
2011,11,21,18,38,7.60
2011,11,21,18,39,7.60
2011,11,21,18,40,7.60
2011,11,21,18,41,8.00
2011,11,21,18,42,8.00
2011,11,21,18,43,8.00
2011,11,21,18,44,8.00
2011,11,21,18,45,8.00
2011,11,21,18,46,8.00
2011,11,21,18,47,8.00
2011,11,21,18,48,8.00
2011,11,21,18,49,8.00
2011,11,21,18,50,8.00
2011,11,21,18,51,8.00
2011,11,21,18,52,8.00
2011,11,21,18,53,8.00
2011,11,21,18,54,8.00
2011,11,21,18,55,8.00
2011,11,21,18,56,8.40
2011,11,21,18,57,8.40
2011,11,21,18,58,8.40
2011,11,21,18,59,8.40
2011,11,21,19,00,8.40
2011,11,21,19,01,8.40
2011,11,21,19,02,8.40
2011,11,21,19,03,8.40
2011,11,21,19,04,8.40
2011,11,21,19,05,8.40
2011,11,21,19,06,8.40
2011,11,21,19,07,8.40
2011,11,21,19,08,8.40
2011,11,21,19,09,8.40
2011,11,21,19,10,8.40
2011,11,21,19,11,8.40
2011,11,21,19,12,8.40
2011,11,21,19,13,8.40
2011,11,21,19,14,8.40
2011,11,21,19,15,8.40
2011,11,21,19,16,8.40
2011,11,21,19,17,8.40
2011,11,21,19,18,8.40
2011,11,21,19,19,8.40
2011,11,21,19,20,8.40
2011,11,21,19,21,8.40
2011,11,21,19,22,8.40
2011,11,21,19,23,8.40
2011,11,21,19,24,8.40
2011,11,21,19,25,8.40
2011,11,21,19,26,8.40
2011,11,21,19,27,8.40
2011,11,21,19,28,8.40
2011,11,21,19,29,8.40
2011,11,21,19,30,8.40
2011,11,21,19,31,8.40
2011,11,21,19,32,8.40
2011,11,21,19,33,8.40
2011,11,21,19,34,8.40
2011,11,21,19,35,8.40
2011,11,21,19,36,8.40
2011,11,21,19,37,8.40
2011,11,21,19,38,8.40
2011,11,21,19,39,8.40
2011,11,21,19,40,8.40
2011,11,21,19,41,8.40
2011,11,21,19,42,8.40
2011,11,21,19,43,8.40
2011,11,21,19,44,8.40
2011,11,21,19,45,8.40
2011,11,21,19,46,8.40
2011,11,21,19,47,8.40
2011,11,21,19,48,8.40
2011,11,21,19,49,8.40
2011,11,21,19,50,8.40
2011,11,21,19,51,8.40
2011,11,21,19,52,8.40
2011,11,21,19,53,8.40
2011,11,21,19,54,8.40
2011,11,21,19,55,8.40
2011,11,21,19,56,8.40
2011,11,21,19,57,8.40
2011,11,21,19,58,8.40
2011,11,21,19,59,8.40
2011,11,21,20,00,8.40
2011,11,21,20,01,8.40
2011,11,21,20,02,8.40
2011,11,21,20,03,8.40
2011,11,21,20,04,8.40
2011,11,21,20,05,8.40
2011,11,21,20,06,8.40
2011,11,21,20,07,8.40
2011,11,21,20,08,8.40
2011,11,21,20,09,8.40
2011,11,21,20,10,8.40
2011,11,21,20,11,8.50
2011,11,21,20,12,8.50
2011,11,21,20,13,8.50
2011,11,21,20,14,8.50
2011,11,21,20,15,8.50
2011,11,21,20,16,8.50
2011,11,21,20,17,8.50
2011,11,21,20,18,8.50
2011,11,21,20,19,8.50
2011,11,21,20,20,8.50
2011,11,21,20,21,8.50
2011,11,21,20,22,8.50
2011,11,21,20,23,8.50
2011,11,21,20,24,8.50
2011,11,21,20,25,8.50
2011,11,21,20,26,8.50
2011,11,21,20,27,8.50
2011,11,21,20,28,8.50
2011,11,21,20,29,8.50
2011,11,21,20,30,8.50
2011,11,21,20,31,8.50
2011,11,21,20,32,8.50
2011,11,21,20,33,8.50
2011,11,21,20,34,8.50
2011,11,21,20,35,8.50
2011,11,21,20,36,8.50
2011,11,21,20,37,8.50
2011,11,21,20,38,8.50
2011,11,21,20,39,8.50
2011,11,21,20,40,8.50
2011,11,21,20,41,8.60
2011,11,21,20,42,8.60
2011,11,21,20,43,8.60
2011,11,21,20,44,8.60
2011,11,21,20,45,8.60
2011,11,21,20,46,8.60
2011,11,21,20,47,8.60
2011,11,21,20,48,8.60
2011,11,21,20,49,8.60
2011,11,21,20,50,8.60
2011,11,21,20,51,8.60
2011,11,21,20,52,8.60
2011,11,21,20,53,8.60
2011,11,21,20,54,8.60
2011,11,21,20,55,8.60
2011,11,21,20,56,8.70
2011,11,21,20,57,8.70
2011,11,21,20,58,8.70
2011,11,21,20,59,8.70
2011,11,21,21,00,8.70
2011,11,21,21,01,8.70
2011,11,21,21,02,8.70
2011,11,21,21,03,8.70
2011,11,21,21,04,8.70
2011,11,21,21,05,8.70
2011,11,21,21,06,8.70
2011,11,21,21,07,8.70
2011,11,21,21,08,8.70
2011,11,21,21,09,8.70
2011,11,21,21,10,8.70
2011,11,21,21,11,8.70
2011,11,21,21,12,8.70
2011,11,21,21,13,8.70
2011,11,21,21,14,8.70
2011,11,21,21,15,8.70
2011,11,21,21,16,8.70
2011,11,21,21,17,8.70
2011,11,21,21,18,8.70
2011,11,21,21,19,8.70
2011,11,21,21,20,8.70
2011,11,21,21,21,8.70
2011,11,21,21,22,8.70
2011,11,21,21,23,8.70
2011,11,21,21,24,8.70
2011,11,21,21,25,8.70
2011,11,21,21,26,8.60
2011,11,21,21,27,8.60
2011,11,21,21,28,8.60
2011,11,21,21,29,8.60
2011,11,21,21,30,8.60
2011,11,21,21,31,8.60
2011,11,21,21,32,8.60
2011,11,21,21,33,8.60
2011,11,21,21,34,8.60
2011,11,21,21,35,8.60
2011,11,21,21,36,8.60
2011,11,21,21,37,8.60
2011,11,21,21,38,8.60
2011,11,21,21,39,8.60
2011,11,21,21,40,8.60
2011,11,21,21,41,8.70
2011,11,21,21,42,8.70
2011,11,21,21,43,8.70
2011,11,21,21,44,8.70
2011,11,21,21,45,8.70
2011,11,21,21,46,8.70
2011,11,21,21,47,8.70
2011,11,21,21,48,8.70
2011,11,21,21,49,8.70
2011,11,21,21,50,8.70
2011,11,21,21,51,8.70
2011,11,21,21,52,8.70
2011,11,21,21,53,8.70
2011,11,21,21,54,8.70
2011,11,21,21,55,8.70
2011,11,21,21,56,8.90
2011,11,21,21,57,8.90
2011,11,21,21,58,8.90
2011,11,21,21,59,8.90
2011,11,21,22,00,8.90
2011,11,21,22,01,8.90
2011,11,21,22,02,8.90
2011,11,21,22,03,8.90
2011,11,21,22,04,8.90
2011,11,21,22,05,8.90
2011,11,21,22,06,8.90
2011,11,21,22,07,8.90
2011,11,21,22,08,8.90
2011,11,21,22,09,8.90
2011,11,21,22,10,8.90
2011,11,21,22,11,8.50
2011,11,21,22,12,8.50
2011,11,21,22,13,8.50
2011,11,21,22,14,8.50
2011,11,21,22,15,8.50
2011,11,21,22,16,8.50
2011,11,21,22,17,8.50
2011,11,21,22,18,8.50
2011,11,21,22,19,8.50
2011,11,21,22,20,8.50
2011,11,21,22,21,8.50
2011,11,21,22,22,8.50
2011,11,21,22,23,8.50
2011,11,21,22,24,8.50
2011,11,21,22,25,8.50
2011,11,21,22,26,8.60
2011,11,21,22,27,8.60
2011,11,21,22,28,8.60
2011,11,21,22,29,8.60
2011,11,21,22,30,8.60
2011,11,21,22,31,8.60
2011,11,21,22,32,8.60
2011,11,21,22,33,8.60
2011,11,21,22,34,8.60
2011,11,21,22,35,8.60
2011,11,21,22,36,8.60